Find Starlink 31251

NORAD ID: 58836 Int'l Des: 2024-017 Owner: SPXS Country: US Constellation: starlink operational
LEOCIRCULAR

現在のビュー

3D地球を読み込み中...

About Starlink 31251

Starlink 31251 (NORAD 58836) is a starlink constellation satellite (v2 mini) launched Jan 24, 2024 by SPXS of US. It operates in LEO, CIRCULAR orbit with a mass of 730.00 kg.

Starlink 31251について

説明を読み込み中...

次回通過

Passes for default location (London). Set your location on the main map for personalized predictions.

高度履歴

Loading altitude history...

軌道要素

1 58836U 24017L 26192.70490543 .00002033 00000-0 80743-4 0 9990
2 58836 53.1614 348.2719 0000734 64.6116 295.4961 15.30200551139151
Epoch: Jul 11, 2026 • Age: 22 hours

現在のステータス

高度 494.2 km
遠地点 / 近地点 N/A
速度 7.62 km/s
衛星直下点 -53.25°S, 110.25°E
打ち上げ日 Jan 24, 2024
運用期間 2.4 years
タイプ internet

技術仕様

分類 Payload
質量 730.00 kg
乾燥質量 700.00 kg
総質量 730.00 kg
長さ 0.30 m
直径 4.10 m
スパン 29.00 m
形状 Box + pan
製造者 SPXS
バスタイプ Starlink V2M
フェーズステータス In Orbit
所有者/国 SPXS/US

Most Searched